Time,TemperatureF,DewpointF,PressureIn,WindDirection,WindDirectionDegrees,WindSpeedMPH,WindSpeedGustMPH,Humidity,HourlyPrecipIn,Conditions,Clouds,dailyrainin,SoftwareType,DateUTC
2013-03-12 00:00:00,50.8,34.8,28.77,West,261,0.0,0.0,54,0.00,,,0.00,VWS V14.01,2013-03-12 07:00:00,
2013-03-12 00:05:00,50.8,34.8,28.77,West,261,0.0,0.0,54,0.00,,,0.00,VWS V14.01,2013-03-12 07:05:00,
2013-03-12 00:10:00,50.8,34.8,28.77,West,261,2.0,2.0,54,0.00,,,0.00,VWS V14.01,2013-03-12 07:10:00,
2013-03-12 00:15:00,51.0,35.0,28.77,West,261,0.0,3.0,54,0.00,,,0.00,VWS V14.01,2013-03-12 07:15:00,
2013-03-12 00:20:00,51.1,35.5,28.77,West,261,1.0,3.0,55,0.00,,,0.00,VWS V14.01,2013-03-12 07:20:00,
2013-03-12 00:25:00,51.5,35.9,28.77,West,261,0.0,3.0,55,0.00,,,0.00,VWS V14.01,2013-03-12 07:25:00,
2013-03-12 00:30:00,51.5,35.9,28.77,West,261,0.0,0.0,55,0.00,,,0.00,VWS V14.01,2013-03-12 07:30:00,
2013-03-12 00:35:00,51.2,35.6,28.77,West,261,0.0,1.0,55,0.00,,,0.00,VWS V14.01,2013-03-12 07:35:00,
2013-03-12 00:40:00,51.0,35.4,28.77,West,261,0.0,2.0,55,0.00,,,0.00,VWS V14.01,2013-03-12 07:40:00,
2013-03-12 00:45:00,50.9,35.3,28.77,West,261,0.0,2.0,55,0.00,,,0.00,VWS V14.01,2013-03-12 07:45:00,
2013-03-12 00:50:00,50.8,35.2,28.77,West,261,0.0,2.0,55,0.00,,,0.00,VWS V14.01,2013-03-12 07:50:00,
2013-03-12 00:55:00,50.6,35.0,28.77,West,261,1.0,2.0,55,0.00,,,0.00,VWS V14.01,2013-03-12 07:55:00,
2013-03-12 01:00:00,50.8,35.2,28.77,West,261,0.0,2.0,55,0.00,,,0.00,VWS V14.01,2013-03-12 08:00:00,
2013-03-12 01:05:00,50.6,35.0,28.77,West,261,0.0,2.0,55,0.00,,,0.00,VWS V14.01,2013-03-12 08:05:00,
2013-03-12 01:10:00,50.4,34.9,28.77,West,261,0.0,2.0,55,0.00,,,0.00,VWS V14.01,2013-03-12 08:10:00,
2013-03-12 01:15:00,50.2,34.7,28.77,West,261,0.0,2.0,55,0.00,,,0.00,VWS V14.01,2013-03-12 08:15:00,
2013-03-12 01:20:00,50.0,34.5,28.77,West,261,0.0,2.0,55,0.00,,,0.00,VWS V14.01,2013-03-12 08:20:00,
2013-03-12 01:25:00,49.9,33.9,28.77,West,261,0.0,2.0,54,0.00,,,0.00,VWS V14.01,2013-03-12 08:25:00,
2013-03-12 01:30:00,49.8,33.8,28.77,West,261,0.0,0.0,54,0.00,,,0.00,VWS V14.01,2013-03-12 08:30:00,
2013-03-12 01:35:00,49.6,33.7,28.77,West,261,0.0,0.0,54,0.00,,,0.00,VWS V14.01,2013-03-12 08:35:00,
2013-03-12 01:40:00,49.6,33.7,28.77,West,261,0.0,0.0,54,0.00,,,0.00,VWS V14.01,2013-03-12 08:40:00,
2013-03-12 01:45:00,49.8,33.8,28.77,West,261,0.0,0.0,54,0.00,,,0.00,VWS V14.01,2013-03-12 08:45:00,
2013-03-12 01:50:00,49.7,33.8,28.77,West,261,0.0,0.0,54,0.00,,,0.00,VWS V14.01,2013-03-12 08:50:00,
2013-03-12 01:55:00,49.6,33.7,28.77,West,261,0.0,1.0,54,0.00,,,0.00,VWS V14.01,2013-03-12 08:55:00,
2013-03-12 02:00:00,49.4,33.9,28.77,West,261,0.0,0.0,55,0.00,,,0.00,VWS V14.01,2013-03-12 09:00:00,
2013-03-12 02:05:00,49.2,33.7,28.77,West,261,0.0,0.0,55,0.00,,,0.00,VWS V14.01,2013-03-12 09:05:00,
2013-03-12 02:10:00,49.2,33.7,28.77,West,261,1.0,1.0,55,0.00,,,0.00,VWS V14.01,2013-03-12 09:10:00,
2013-03-12 02:15:00,49.1,33.7,28.77,West,261,0.0,2.0,55,0.00,,,0.00,VWS V14.01,2013-03-12 09:15:00,
2013-03-12 02:20:00,49.2,33.7,28.77,West,261,0.0,2.0,55,0.00,,,0.00,VWS V14.01,2013-03-12 09:20:00,
2013-03-12 02:25:00,49.2,33.7,28.77,West,261,0.0,2.0,55,0.00,,,0.00,VWS V14.01,2013-03-12 09:25:00,
2013-03-12 02:30:00,49.1,33.7,28.77,West,261,0.0,0.0,55,0.00,,,0.00,VWS V14.01,2013-03-12 09:30:00,
2013-03-12 02:35:00,48.9,33.5,28.77,West,261,0.0,0.0,55,0.00,,,0.00,VWS V14.01,2013-03-12 09:35:00,
2013-03-12 02:40:00,48.8,33.4,28.77,West,261,0.0,0.0,55,0.00,,,0.00,VWS V14.01,2013-03-12 09:40:00,
2013-03-12 02:45:00,48.6,33.2,28.77,West,261,0.0,0.0,55,0.00,,,0.00,VWS V14.01,2013-03-12 09:45:00,
2013-03-12 02:50:00,48.3,32.4,28.77,West,261,1.0,2.0,54,0.00,,,0.00,VWS V14.01,2013-03-12 09:50:00,
2013-03-12 02:55:00,48.2,32.3,28.77,West,261,0.0,2.0,54,0.00,,,0.00,VWS V14.01,2013-03-12 09:55:00,
2013-03-12 03:00:00,48.1,31.8,28.77,West,261,0.0,0.0,53,0.00,,,0.00,VWS V14.01,2013-03-12 10:00:00,
2013-03-12 03:05:00,47.9,31.6,28.77,West,261,0.0,0.0,53,0.00,,,0.00,VWS V14.01,2013-03-12 10:05:00,
2013-03-12 03:10:00,47.7,31.4,28.77,West,261,0.0,0.0,53,0.00,,,0.00,VWS V14.01,2013-03-12 10:10:00,
2013-03-12 03:15:00,47.5,31.2,28.77,West,261,0.0,0.0,53,0.00,,,0.00,VWS V14.01,2013-03-12 10:15:00,
2013-03-12 03:20:00,47.5,30.8,28.77,West,261,0.0,0.0,52,0.00,,,0.00,VWS V14.01,2013-03-12 10:20:00,
2013-03-12 03:25:00,47.4,30.7,28.77,West,261,0.0,0.0,52,0.00,,,0.00,VWS V14.01,2013-03-12 10:25:00,
2013-03-12 03:30:00,47.3,30.6,28.77,West,261,0.0,0.0,52,0.00,,,0.00,VWS V14.01,2013-03-12 10:30:00,
2013-03-12 03:35:00,47.2,30.5,28.77,West,261,0.0,0.0,52,0.00,,,0.00,VWS V14.01,2013-03-12 10:35:00,
2013-03-12 03:40:00,47.1,29.9,28.77,West,261,0.0,0.0,51,0.00,,,0.00,VWS V14.01,2013-03-12 10:40:00,
2013-03-12 03:45:00,47.0,29.8,28.77,West,261,0.0,0.0,51,0.00,,,0.00,VWS V14.01,2013-03-12 10:45:00,
2013-03-12 03:50:00,46.9,29.7,28.77,West,261,0.0,0.0,51,0.00,,,0.00,VWS V14.01,2013-03-12 10:50:00,
2013-03-12 03:55:00,46.9,29.2,28.77,West,261,0.0,0.0,50,0.00,,,0.00,VWS V14.01,2013-03-12 10:55:00,
2013-03-12 04:00:00,47.0,28.9,28.77,West,261,0.0,0.0,49,0.00,,,0.00,VWS V14.01,2013-03-12 11:00:00,
2013-03-12 04:05:00,47.0,28.9,28.77,West,261,0.0,0.0,49,0.00,,,0.00,VWS V14.01,2013-03-12 11:05:00,
2013-03-12 04:10:00,47.0,28.9,28.77,West,261,0.0,1.0,49,0.00,,,0.00,VWS V14.01,2013-03-12 11:10:00,
2013-03-12 04:15:00,47.0,28.9,28.77,West,261,0.0,1.0,49,0.00,,,0.00,VWS V14.01,2013-03-12 11:15:00,
2013-03-12 04:20:00,46.9,28.8,28.77,West,261,0.0,1.0,49,0.00,,,0.00,VWS V14.01,2013-03-12 11:20:00,
2013-03-12 04:24:00,46.7,28.6,28.77,West,261,1.0,1.0,49,0.00,,,0.00,VWS V14.01,2013-03-12 11:24:00,
2013-03-12 04:29:00,46.7,28.1,28.77,West,261,0.0,0.0,48,0.00,,,0.00,VWS V14.01,2013-03-12 11:29:00,
2013-03-12 04:30:00,46.7,28.6,28.77,West,261,0.0,1.0,49,0.00,,,0.00,VWS V14.01,2013-03-12 11:30:00,
2013-03-12 04:35:00,46.9,28.2,28.77,West,261,2.0,2.0,48,0.00,,,0.00,VWS V14.01,2013-03-12 11:35:00,
2013-03-12 04:40:00,47.3,28.1,28.77,West,261,0.0,2.0,47,0.00,,,0.00,VWS V14.01,2013-03-12 11:40:00,
2013-03-12 04:45:00,47.4,28.7,28.77,West,261,0.0,2.0,48,0.00,,,0.00,VWS V14.01,2013-03-12 11:45:00,
2013-03-12 04:50:00,47.3,29.1,28.77,West,261,0.0,2.0,49,0.00,,,0.00,VWS V14.01,2013-03-12 11:50:00,
2013-03-12 04:55:00,47.1,29.4,28.77,West,261,1.0,2.0,50,0.00,,,0.00,VWS V14.01,2013-03-12 11:55:00,
2013-03-12 05:00:00,47.0,29.8,28.77,West,261,0.0,0.0,51,0.00,,,0.00,VWS V14.01,2013-03-12 12:00:00,
2013-03-12 05:05:00,46.9,29.7,28.77,West,261,0.0,0.0,51,0.00,,,0.00,VWS V14.01,2013-03-12 12:05:00,
2013-03-12 05:10:00,46.7,29.5,28.77,West,261,0.0,0.0,51,0.00,,,0.00,VWS V14.01,2013-03-12 12:10:00,
2013-03-12 05:15:00,46.6,29.5,28.77,West,261,0.0,0.0,51,0.00,,,0.00,VWS V14.01,2013-03-12 12:15:00,
2013-03-12 05:20:00,46.6,29.5,28.77,West,261,0.0,0.0,51,0.00,,,0.00,VWS V14.01,2013-03-12 12:20:00,
2013-03-12 05:25:00,46.7,29.5,28.77,West,261,0.0,0.0,51,0.00,,,0.00,VWS V14.01,2013-03-12 12:25:00,
2013-03-12 05:29:00,46.8,29.2,28.77,West,261,0.0,0.0,50,0.00,,,0.00,VWS V14.01,2013-03-12 12:29:00,
2013-03-12 05:30:00,46.8,29.2,28.77,West,261,0.0,2.0,50,0.00,,,0.00,VWS V14.01,2013-03-12 12:30:00,
2013-03-12 05:34:00,46.8,28.7,28.77,West,261,0.0,1.0,49,0.00,,,0.00,VWS V14.01,2013-03-12 12:34:00,
2013-03-12 05:39:00,46.9,28.2,28.77,West,261,0.0,1.0,48,0.00,,,0.00,VWS V14.01,2013-03-12 12:39:00,
2013-03-12 05:44:00,46.8,28.2,28.77,West,261,0.0,1.0,48,0.00,,,0.00,VWS V14.01,2013-03-12 12:44:00,
2013-03-12 05:49:00,46.9,27.7,28.77,West,261,0.0,1.0,47,0.00,,,0.00,VWS V14.01,2013-03-12 12:49:00,
2013-03-12 05:54:00,47.0,27.3,28.77,West,261,0.0,1.0,46,0.00,,,0.00,VWS V14.01,2013-03-12 12:54:00,
2013-03-12 05:59:00,47.0,26.8,28.77,West,261,0.0,0.0,45,0.00,,,0.00,VWS V14.01,2013-03-12 12:59:00,
2013-03-12 06:00:00,47.0,26.8,28.77,West,261,0.0,1.0,45,0.00,,,0.00,VWS V14.01,2013-03-12 13:00:00,
2013-03-12 06:04:00,47.3,26.5,28.77,West,261,0.0,0.0,44,0.00,,,0.00,VWS V14.01,2013-03-12 13:04:00,
2013-03-12 06:09:00,47.2,26.4,28.77,West,261,0.0,0.0,44,0.00,,,0.00,VWS V14.01,2013-03-12 13:09:00,
2013-03-12 06:14:00,47.2,26.4,28.77,West,261,0.0,0.0,44,0.00,,,0.00,VWS V14.01,2013-03-12 13:14:00,
2013-03-12 06:19:00,47.0,25.7,28.77,West,261,0.0,0.0,43,0.00,,,0.00,VWS V14.01,2013-03-12 13:19:00,
2013-03-12 06:24:00,46.9,25.6,28.77,West,261,0.0,0.0,43,0.00,,,0.00,VWS V14.01,2013-03-12 13:24:00,
2013-03-12 06:29:00,46.9,25.6,28.77,West,261,0.0,0.0,43,0.00,,,0.00,VWS V14.01,2013-03-12 13:29:00,
2013-03-12 06:30:00,46.9,25.6,28.77,West,261,0.0,0.0,43,0.00,,,0.00,VWS V14.01,2013-03-12 13:30:00,
2013-03-12 06:34:00,47.3,25.4,28.77,West,261,0.0,2.0,42,0.00,,,0.00,VWS V14.01,2013-03-12 13:34:00,
2013-03-12 06:39:00,47.4,24.9,28.77,West,261,0.0,2.0,41,0.00,,,0.00,VWS V14.01,2013-03-12 13:39:00,
2013-03-12 06:44:00,47.4,25.5,28.77,West,261,0.0,2.0,42,0.00,,,0.00,VWS V14.01,2013-03-12 13:44:00,
2013-03-12 06:49:00,47.4,24.9,28.77,West,261,0.0,2.0,41,0.00,,,0.00,VWS V14.01,2013-03-12 13:49:00,
2013-03-12 06:54:00,47.4,24.9,28.77,West,261,0.0,2.0,41,0.00,,,0.00,VWS V14.01,2013-03-12 13:54:00,
2013-03-12 06:59:00,47.5,25.0,28.77,West,261,0.0,0.0,41,0.00,,,0.00,VWS V14.01,2013-03-12 13:59:00,
2013-03-12 07:00:00,47.5,25.0,28.77,West,261,0.0,2.0,41,0.00,,,0.00,VWS V14.01,2013-03-12 14:00:00,
2013-03-12 07:04:00,47.4,24.9,28.77,West,261,0.0,0.0,41,0.00,,,0.00,VWS V14.01,2013-03-12 14:04:00,
2013-03-12 07:09:00,47.2,25.3,28.77,West,261,0.0,0.0,42,0.00,,,0.00,VWS V14.01,2013-03-12 14:09:00,
2013-03-12 07:14:00,47.1,25.2,28.77,West,261,0.0,2.0,42,0.00,,,0.00,VWS V14.01,2013-03-12 14:14:00,
2013-03-12 07:19:00,47.1,25.2,28.77,West,261,0.0,2.0,42,0.00,,,0.00,VWS V14.01,2013-03-12 14:19:00,
2013-03-12 07:24:00,47.2,25.3,28.77,West,261,0.0,2.0,42,0.00,,,0.00,VWS V14.01,2013-03-12 14:24:00,
2013-03-12 07:29:00,47.1,24.6,28.77,West,261,0.0,0.0,41,0.00,,,0.00,VWS V14.01,2013-03-12 14:29:00,
2013-03-12 07:30:00,47.1,24.6,28.77,West,261,0.0,2.0,41,0.00,,,0.00,VWS V14.01,2013-03-12 14:30:00,
2013-03-12 07:34:00,47.0,24.5,28.77,West,261,0.0,0.0,41,0.00,,,0.00,VWS V14.01,2013-03-12 14:34:00,
2013-03-12 07:39:00,47.3,24.2,28.77,West,261,0.0,0.0,40,0.00,,,0.00,VWS V14.01,2013-03-12 14:39:00,
2013-03-12 07:44:00,47.4,24.3,28.77,West,261,0.0,0.0,40,0.00,,,0.00,VWS V14.01,2013-03-12 14:44:00,
2013-03-12 07:49:00,47.7,24.6,28.77,West,261,0.0,0.0,40,0.00,,,0.00,VWS V14.01,2013-03-12 14:49:00,
2013-03-12 07:54:00,48.4,24.6,28.77,West,261,0.0,0.0,39,0.00,,,0.00,VWS V14.01,2013-03-12 14:54:00,
2013-03-12 07:59:00,49.4,24.9,28.77,West,261,0.0,0.0,38,0.00,,,0.00,VWS V14.01,2013-03-12 14:59:00,
2013-03-12 08:00:00,49.3,24.8,28.77,West,261,0.0,0.0,38,0.00,,,0.00,VWS V14.01,2013-03-12 15:00:00,
2013-03-12 08:04:00,50.0,26.0,28.77,West,261,0.0,2.0,39,0.00,,,0.00,VWS V14.01,2013-03-12 15:04:00,
2013-03-12 08:09:00,50.8,26.8,28.77,West,261,0.0,2.0,39,0.00,,,0.00,VWS V14.01,2013-03-12 15:09:00,
2013-03-12 08:14:00,51.7,28.8,28.77,West,261,0.0,2.0,41,0.00,,,0.00,VWS V14.01,2013-03-12 15:14:00,
2013-03-12 08:19:00,52.4,30.6,28.77,West,261,0.0,2.0,43,0.00,,,0.00,VWS V14.01,2013-03-12 15:19:00,
2013-03-12 08:24:00,53.1,32.9,28.77,West,261,0.0,2.0,46,0.00,,,0.00,VWS V14.01,2013-03-12 15:24:00,
2013-03-12 08:29:00,53.8,35.1,28.77,West,261,0.0,0.0,49,0.00,,,0.00,VWS V14.01,2013-03-12 15:29:00,
2013-03-12 08:30:00,53.7,34.5,28.77,West,261,0.0,2.0,48,0.00,,,0.00,VWS V14.01,2013-03-12 15:30:00,
2013-03-12 08:34:00,54.8,36.5,28.77,West,261,0.0,0.0,50,0.00,,,0.00,VWS V14.01,2013-03-12 15:34:00,
2013-03-12 08:39:00,55.6,38.3,28.77,West,261,0.0,1.0,52,0.00,,,0.00,VWS V14.01,2013-03-12 15:39:00,
2013-03-12 08:44:00,56.4,39.5,28.77,West,261,0.0,2.0,53,0.00,,,0.00,VWS V14.01,2013-03-12 15:44:00,
2013-03-12 08:49:00,57.1,40.2,28.77,West,261,1.0,2.0,53,0.00,,,0.00,VWS V14.01,2013-03-12 15:49:00,
2013-03-12 08:54:00,57.5,40.5,28.77,West,261,2.0,2.0,53,0.00,,,0.00,VWS V14.01,2013-03-12 15:54:00,
2013-03-12 08:59:00,57.7,40.7,28.77,West,261,0.0,3.0,53,0.00,,,0.00,VWS V14.01,2013-03-12 15:59:00,
2013-03-12 09:00:00,57.8,40.8,28.77,West,261,3.0,3.0,53,0.00,,,0.00,VWS V14.01,2013-03-12 16:00:00,
2013-03-12 09:04:00,57.3,40.3,28.77,West,261,0.0,3.0,53,0.00,,,0.00,VWS V14.01,2013-03-12 16:04:00,
2013-03-12 09:09:00,57.6,41.1,28.77,West,261,0.0,3.0,54,0.00,,,0.00,VWS V14.01,2013-03-12 16:09:00,
2013-03-12 09:14:00,58.4,41.3,28.77,West,261,0.0,3.0,53,0.00,,,0.00,VWS V14.01,2013-03-12 16:14:00,
2013-03-12 09:19:00,58.3,41.3,28.77,West,261,2.0,3.0,53,0.00,,,0.00,VWS V14.01,2013-03-12 16:19:00,
2013-03-12 09:24:00,58.5,41.5,28.77,West,261,0.0,3.0,53,0.00,,,0.00,VWS V14.01,2013-03-12 16:24:00,
2013-03-12 09:29:00,58.8,41.2,28.77,West,261,1.0,2.0,52,0.00,,,0.00,VWS V14.01,2013-03-12 16:29:00,
2013-03-12 09:30:00,58.8,41.7,28.77,West,261,2.0,3.0,53,0.00,,,0.00,VWS V14.01,2013-03-12 16:30:00,
2013-03-12 09:34:00,58.8,42.2,28.77,West,261,0.0,3.0,54,0.00,,,0.00,VWS V14.01,2013-03-12 16:34:00,
2013-03-12 09:39:00,59.0,41.9,28.77,West,261,0.0,3.0,53,0.00,,,0.00,VWS V14.01,2013-03-12 16:39:00,
2013-03-12 09:44:00,59.4,42.3,28.77,West,261,0.0,3.0,53,0.00,,,0.00,VWS V14.01,2013-03-12 16:44:00,
2013-03-12 09:49:00,59.9,42.2,28.77,West,261,0.0,3.0,52,0.00,,,0.00,VWS V14.01,2013-03-12 16:49:00,
2013-03-12 09:54:00,60.4,42.2,28.77,West,261,3.0,3.0,51,0.00,,,0.00,VWS V14.01,2013-03-12 16:54:00,
2013-03-12 09:59:00,60.8,42.6,28.77,West,261,0.0,1.0,51,0.00,,,0.00,VWS V14.01,2013-03-12 16:59:00,
2013-03-12 10:00:00,60.7,42.5,28.77,West,261,0.0,3.0,51,0.00,,,0.00,VWS V14.01,2013-03-12 17:00:00,
2013-03-12 10:04:00,61.1,42.8,28.77,West,260,2.0,4.0,51,0.00,,,0.00,VWS V14.01,2013-03-12 17:04:00,
2013-03-12 10:09:00,61.4,43.6,28.77,WSW,248,1.0,5.0,52,0.00,,,0.00,VWS V14.01,2013-03-12 17:09:00,
2013-03-12 10:14:00,61.3,44.0,28.77,WSW,248,0.0,5.0,53,0.00,,,0.00,VWS V14.01,2013-03-12 17:14:00,
2013-03-12 10:19:00,61.6,44.3,28.77,WSW,245,1.0,5.0,53,0.00,,,0.00,VWS V14.01,2013-03-12 17:19:00,
2013-03-12 10:24:00,61.4,44.1,28.77,SW,216,0.0,6.0,53,0.00,,,0.00,VWS V14.01,2013-03-12 17:24:00,
2013-03-12 10:29:00,61.7,44.4,28.77,WSW,243,2.0,2.0,53,0.00,,,0.00,VWS V14.01,2013-03-12 17:29:00,
2013-03-12 10:30:00,61.7,44.4,28.77,WSW,243,0.0,6.0,53,0.00,,,0.00,VWS V14.01,2013-03-12 17:30:00,
2013-03-12 10:34:00,61.9,44.6,28.77,WNW,290,0.0,6.0,53,0.00,,,0.00,VWS V14.01,2013-03-12 17:34:00,
2013-03-12 10:39:00,62.2,45.4,28.77,SW,230,2.0,6.0,54,0.00,,,0.00,VWS V14.01,2013-03-12 17:39:00,
2013-03-12 10:44:00,62.2,44.9,28.77,SW,215,0.0,6.0,53,0.00,,,0.00,VWS V14.01,2013-03-12 17:44:00,
2013-03-12 10:49:00,62.7,45.3,28.77,SW,215,0.0,6.0,53,0.00,,,0.00,VWS V14.01,2013-03-12 17:49:00,
2013-03-12 10:54:00,63.0,46.1,28.77,WSW,253,0.0,6.0,54,0.00,,,0.00,VWS V14.01,2013-03-12 17:54:00,
2013-03-12 10:59:00,63.6,46.2,28.77,SW,233,6.0,6.0,53,0.00,,,0.00,VWS V14.01,2013-03-12 17:59:00,
2013-03-12 11:00:00,63.6,46.2,28.77,SW,225,4.0,6.0,53,0.00,,,0.00,VWS V14.01,2013-03-12 18:00:00,
2013-03-12 11:04:00,63.0,46.1,28.77,SW,228,0.0,6.0,54,0.00,,,0.00,VWS V14.01,2013-03-12 18:04:00,
2013-03-12 11:09:00,62.9,46.0,28.77,WSW,239,4.0,6.0,54,0.00,,,0.00,VWS V14.01,2013-03-12 18:09:00,
2013-03-12 11:14:00,62.8,45.9,28.77,WSW,255,3.0,6.0,54,0.00,,,0.00,VWS V14.01,2013-03-12 18:14:00,
2013-03-12 11:19:00,63.2,45.3,28.77,WSW,241,4.0,7.0,52,0.00,,,0.00,VWS V14.01,2013-03-12 18:19:00,
2013-03-12 11:24:00,63.3,45.4,28.77,SSW,207,4.0,8.0,52,0.00,,,0.00,VWS V14.01,2013-03-12 18:24:00,
2013-03-12 11:29:00,63.2,45.8,28.77,WSW,247,2.0,6.0,53,0.00,,,0.00,VWS V14.01,2013-03-12 18:29:00,
2013-03-12 11:30:00,63.2,45.8,28.77,WSW,248,6.0,8.0,53,0.00,,,0.00,VWS V14.01,2013-03-12 18:30:00,
2013-03-12 11:34:00,63.4,46.0,28.77,SW,221,4.0,7.0,53,0.00,,,0.00,VWS V14.01,2013-03-12 18:34:00,
2013-03-12 11:39:00,63.5,46.1,28.77,WSW,244,0.0,7.0,53,0.00,,,0.00,VWS V14.01,2013-03-12 18:39:00,
2013-03-12 11:44:00,64.0,46.5,28.77,WSW,245,5.0,7.0,53,0.00,,,0.00,VWS V14.01,2013-03-12 18:44:00,
2013-03-12 11:49:00,63.5,46.6,28.77,WSW,248,5.0,8.0,54,0.00,,,0.00,VWS V14.01,2013-03-12 18:49:00,
2013-03-12 11:54:00,62.9,46.5,28.77,WSW,247,5.0,8.0,55,0.00,,,0.00,VWS V14.01,2013-03-12 18:54:00,
2013-03-12 11:59:00,63.0,46.6,28.77,SW,217,6.0,6.0,55,0.00,,,0.00,VWS V14.01,2013-03-12 18:59:00,
2013-03-12 12:00:00,63.0,46.6,28.77,West,260,2.0,8.0,55,0.00,,,0.00,VWS V14.01,2013-03-12 19:00:00,
2013-03-12 12:04:00,61.9,46.0,28.77,SSW,212,2.0,9.0,56,0.00,,,0.00,VWS V14.01,2013-03-12 19:04:00,
2013-03-12 12:09:00,61.8,46.0,28.77,SW,233,9.0,9.0,56,0.00,,,0.00,VWS V14.01,2013-03-12 19:09:00,
2013-03-12 12:14:00,60.7,44.9,28.77,SSW,210,7.0,10.0,56,0.00,,,0.00,VWS V14.01,2013-03-12 19:14:00,
2013-03-12 12:19:00,60.3,44.6,28.77,WSW,249,7.0,10.0,56,0.00,,,0.00,VWS V14.01,2013-03-12 19:19:00,
2013-03-12 12:24:00,60.2,44.5,28.77,SSW,213,4.0,10.0,56,0.00,,,0.00,VWS V14.01,2013-03-12 19:24:00,
2013-03-12 12:29:00,60.6,44.8,28.77,SW,236,5.0,6.0,56,0.00,,,0.00,VWS V14.01,2013-03-12 19:29:00,
2013-03-12 12:30:00,60.6,44.8,28.77,WSW,245,6.0,10.0,56,0.00,,,0.00,VWS V14.01,2013-03-12 19:30:00,
2013-03-12 12:34:00,61.6,45.3,28.77,WSW,250,3.0,7.0,55,0.00,,,0.00,VWS V14.01,2013-03-12 19:34:00,
2013-03-12 12:39:00,62.1,45.3,28.77,WSW,254,3.0,8.0,54,0.00,,,0.00,VWS V14.01,2013-03-12 19:39:00,
2013-03-12 12:44:00,62.5,45.7,28.77,South,173,5.0,8.0,54,0.00,,,0.00,VWS V14.01,2013-03-12 19:44:00,
2013-03-12 12:49:00,63.2,45.8,28.77,WNW,288,7.0,8.0,53,0.00,,,0.00,VWS V14.01,2013-03-12 19:49:00,
2013-03-12 12:54:00,62.8,45.4,28.77,WSW,258,4.0,8.0,53,0.00,,,0.00,VWS V14.01,2013-03-12 19:54:00,
2013-03-12 12:59:00,62.4,45.5,28.77,WNW,283,2.0,6.0,54,0.00,,,0.00,VWS V14.01,2013-03-12 19:59:00,
2013-03-12 13:00:00,62.4,45.5,28.77,WNW,286,5.0,8.0,54,0.00,,,0.00,VWS V14.01,2013-03-12 20:00:00,
2013-03-12 13:04:00,62.6,45.7,28.77,SW,228,3.0,8.0,54,0.00,,,0.00,VWS V14.01,2013-03-12 20:04:00,
2013-03-12 13:09:00,62.6,45.7,28.77,SW,236,3.0,9.0,54,0.00,,,0.00,VWS V14.01,2013-03-12 20:09:00,
2013-03-12 13:14:00,62.5,45.7,28.77,SW,218,5.0,9.0,54,0.00,,,0.00,VWS V14.01,2013-03-12 20:14:00,
2013-03-12 13:19:00,62.6,45.7,28.77,SSW,211,5.0,10.0,54,0.00,,,0.00,VWS V14.01,2013-03-12 20:19:00,
2013-03-12 13:24:00,62.3,46.0,28.77,SW,236,4.0,10.0,55,0.00,,,0.00,VWS V14.01,2013-03-12 20:24:00,
2013-03-12 13:29:00,62.3,46.0,28.77,SW,231,3.0,7.0,55,0.00,,,0.00,VWS V14.01,2013-03-12 20:29:00,
2013-03-12 13:30:00,62.3,45.9,28.77,WSW,237,4.0,10.0,55,0.00,,,0.00,VWS V14.01,2013-03-12 20:30:00,
2013-03-12 13:34:00,61.7,45.9,28.77,WSW,240,3.0,9.0,56,0.00,,,0.00,VWS V14.01,2013-03-12 20:34:00,
2013-03-12 13:39:00,61.4,45.1,28.77,SSW,206,1.0,9.0,55,0.00,,,0.00,VWS V14.01,2013-03-12 20:39:00,
2013-03-12 13:44:00,61.6,45.3,28.77,SSW,207,4.0,9.0,55,0.00,,,0.00,VWS V14.01,2013-03-12 20:44:00,
2013-03-12 13:49:00,61.8,45.5,28.77,SW,223,7.0,9.0,55,0.00,,,0.00,VWS V14.01,2013-03-12 20:49:00,
2013-03-12 13:54:00,61.5,45.2,28.77,SSW,213,4.0,9.0,55,0.00,,,0.00,VWS V14.01,2013-03-12 20:54:00,
2013-03-12 13:59:00,61.5,45.2,28.77,WNW,285,4.0,9.0,55,0.00,,,0.00,VWS V14.01,2013-03-12 20:59:00,
2013-03-12 14:00:00,61.5,45.2,28.77,WNW,285,4.0,9.0,55,0.00,,,0.00,VWS V14.01,2013-03-12 21:00:00,
2013-03-12 14:04:00,61.8,45.5,28.77,WSW,253,2.0,8.0,55,0.00,,,0.00,VWS V14.01,2013-03-12 21:04:00,
2013-03-12 14:09:00,62.0,45.7,28.77,NW,304,4.0,10.0,55,0.00,,,0.00,VWS V14.01,2013-03-12 21:09:00,
2013-03-12 14:14:00,61.8,45.5,28.77,WNW,287,2.0,10.0,55,0.00,,,0.00,VWS V14.01,2013-03-12 21:14:00,
2013-03-12 14:19:00,62.3,46.0,28.77,WSW,244,6.0,10.0,55,0.00,,,0.00,VWS V14.01,2013-03-12 21:19:00,
2013-03-12 14:24:00,61.6,45.3,28.77,South,172,5.0,10.0,55,0.00,,,0.00,VWS V14.01,2013-03-12 21:24:00,
2013-03-12 14:29:00,60.9,44.6,28.77,SSW,204,11.0,11.0,55,0.00,,,0.00,VWS V14.01,2013-03-12 21:29:00,
2013-03-12 14:30:00,61.0,44.7,28.77,South,190,6.0,10.0,55,0.00,,,0.00,VWS V14.01,2013-03-12 21:30:00,
2013-03-12 14:34:00,60.7,44.5,28.77,SW,225,5.0,11.0,55,0.00,,,0.00,VWS V14.01,2013-03-12 21:34:00,
2013-03-12 14:39:00,60.9,44.6,28.77,WSW,251,7.0,11.0,55,0.00,,,0.00,VWS V14.01,2013-03-12 21:39:00,
2013-03-12 14:44:00,61.3,45.0,28.77,WSW,240,3.0,11.0,55,0.00,,,0.00,VWS V14.01,2013-03-12 21:44:00,
2013-03-12 14:49:00,61.0,44.7,28.77,WSW,243,8.0,11.0,55,0.00,,,0.00,VWS V14.01,2013-03-12 21:49:00,
2013-03-12 14:54:00,62.0,45.2,28.77,NW,313,2.0,11.0,54,0.00,,,0.00,VWS V14.01,2013-03-12 21:54:00,
2013-03-12 14:59:00,63.0,46.1,28.77,SSW,208,3.0,7.0,54,0.00,,,0.00,VWS V14.01,2013-03-12 21:59:00,
2013-03-12 15:00:00,63.0,45.6,28.77,SW,221,4.0,11.0,53,0.00,,,0.00,VWS V14.01,2013-03-12 22:00:00,
2013-03-12 15:04:00,62.9,46.0,28.77,WNW,301,3.0,9.0,54,0.00,,,0.00,VWS V14.01,2013-03-12 22:04:00,
2013-03-12 15:09:00,62.7,45.8,28.77,WSW,244,5.0,9.0,54,0.00,,,0.00,VWS V14.01,2013-03-12 22:09:00,
2013-03-12 15:14:00,62.6,45.7,28.77,WSW,250,5.0,9.0,54,0.00,,,0.00,VWS V14.01,2013-03-12 22:14:00,
2013-03-12 15:19:00,63.2,46.3,28.77,WSW,252,4.0,9.0,54,0.00,,,0.00,VWS V14.01,2013-03-12 22:19:00,
2013-03-12 15:24:00,62.8,45.4,28.77,WSW,251,7.0,9.0,53,0.00,,,0.00,VWS V14.01,2013-03-12 22:24:00,
2013-03-12 15:29:00,62.6,45.7,28.77,West,271,3.0,9.0,54,0.00,,,0.00,VWS V14.01,2013-03-12 22:29:00,
2013-03-12 15:30:00,62.6,45.7,28.77,SW,233,6.0,10.0,54,0.00,,,0.00,VWS V14.01,2013-03-12 22:30:00,
2013-03-12 15:34:00,61.4,44.6,28.77,WSW,244,3.0,10.0,54,0.00,,,0.00,VWS V14.01,2013-03-12 22:34:00,
2013-03-12 15:39:00,62.3,46.0,28.77,West,265,4.0,10.0,55,0.00,,,0.00,VWS V14.01,2013-03-12 22:39:00,
2013-03-12 15:44:00,62.3,46.0,28.77,WSW,248,4.0,10.0,55,0.00,,,0.00,VWS V14.01,2013-03-12 22:44:00,
2013-03-12 15:49:00,62.5,45.7,28.77,WSW,257,0.0,10.0,54,0.00,,,0.00,VWS V14.01,2013-03-12 22:49:00,
2013-03-12 15:54:00,63.2,46.3,28.77,West,278,5.0,10.0,54,0.00,,,0.00,VWS V14.01,2013-03-12 22:54:00,
2013-03-12 15:59:00,62.9,46.0,28.77,WSW,244,3.0,10.0,54,0.00,,,0.00,VWS V14.01,2013-03-12 22:59:00,
2013-03-12 16:00:00,62.9,46.0,28.77,WSW,244,3.0,10.0,54,0.00,,,0.00,VWS V14.01,2013-03-12 23:00:00,
2013-03-12 16:04:00,62.9,45.5,28.77,SW,232,5.0,9.0,53,0.00,,,0.00,VWS V14.01,2013-03-12 23:04:00,
2013-03-12 16:09:00,62.5,45.7,28.77,West,265,6.0,9.0,54,0.00,,,0.00,VWS V14.01,2013-03-12 23:09:00,
2013-03-12 16:14:00,62.8,45.9,28.77,West,270,3.0,9.0,54,0.00,,,0.00,VWS V14.01,2013-03-12 23:14:00,
2013-03-12 16:19:00,63.6,45.7,28.77,WNW,283,6.0,9.0,52,0.00,,,0.00,VWS V14.01,2013-03-12 23:19:00,
2013-03-12 16:24:00,63.3,45.4,28.77,WSW,258,7.0,9.0,52,0.00,,,0.00,VWS V14.01,2013-03-12 23:24:00,
2013-03-12 16:29:00,62.8,45.4,28.77,WSW,238,1.0,6.0,53,0.00,,,0.00,VWS V14.01,2013-03-12 23:29:00,
2013-03-12 16:30:00,62.9,45.5,28.77,WSW,239,6.0,9.0,53,0.00,,,0.00,VWS V14.01,2013-03-12 23:30:00,
2013-03-12 16:34:00,63.0,46.1,28.77,West,266,5.0,9.0,54,0.00,,,0.00,VWS V14.01,2013-03-12 23:34:00,
2013-03-12 16:39:00,63.9,46.5,28.77,West,259,4.0,9.0,53,0.00,,,0.00,VWS V14.01,2013-03-12 23:39:00,
2013-03-12 16:44:00,63.7,45.8,28.77,SSW,211,4.0,9.0,52,0.00,,,0.00,VWS V14.01,2013-03-12 23:44:00,
2013-03-12 16:49:00,62.8,45.9,28.77,SW,215,6.0,9.0,54,0.00,,,0.00,VWS V14.01,2013-03-12 23:49:00,
2013-03-12 16:54:00,63.2,46.3,28.77,SW,231,0.0,9.0,54,0.00,,,0.00,VWS V14.01,2013-03-12 23:54:00,
2013-03-12 16:59:00,63.5,46.6,28.77,SW,236,3.0,3.0,54,0.00,,,0.00,VWS V14.01,2013-03-12 23:59:00,
2013-03-12 17:00:00,63.6,46.7,28.77,WSW,237,2.0,9.0,54,0.00,,,0.00,VWS V14.01,2013-03-13 00:00:00,
2013-03-12 17:04:00,62.8,46.4,28.77,SW,234,0.0,7.0,55,0.00,,,0.00,VWS V14.01,2013-03-13 00:04:00,
2013-03-12 17:09:00,62.7,46.8,28.77,WSW,245,0.0,7.0,56,0.00,,,0.00,VWS V14.01,2013-03-13 00:09:00,
2013-03-12 17:14:00,62.6,46.7,28.77,NW,306,2.0,7.0,56,0.00,,,0.00,VWS V14.01,2013-03-13 00:14:00,
2013-03-12 17:19:00,63.4,47.0,28.77,WNW,302,0.0,7.0,55,0.00,,,0.00,VWS V14.01,2013-03-13 00:19:00,
2013-03-12 17:24:00,62.6,46.7,28.77,WSW,242,4.0,7.0,56,0.00,,,0.00,VWS V14.01,2013-03-13 00:24:00,
2013-03-12 17:29:00,62.2,46.3,28.77,West,267,3.0,4.0,56,0.00,,,0.00,VWS V14.01,2013-03-13 00:29:00,
2013-03-12 17:30:00,62.2,46.3,28.77,SW,221,4.0,7.0,56,0.00,,,0.00,VWS V14.01,2013-03-13 00:30:00,
2013-03-12 17:34:00,62.3,46.4,28.77,WNW,301,2.0,7.0,56,0.00,,,0.00,VWS V14.01,2013-03-13 00:34:00,
2013-03-12 17:39:00,62.4,46.0,28.77,NNW,331,3.0,7.0,55,0.00,,,0.00,VWS V14.01,2013-03-13 00:39:00,
2013-03-12 17:44:00,62.0,45.7,28.77,WSW,253,4.0,8.0,55,0.00,,,0.00,VWS V14.01,2013-03-13 00:44:00,
2013-03-12 17:49:00,62.0,46.1,28.77,WSW,254,4.0,8.0,56,0.00,,,0.00,VWS V14.01,2013-03-13 00:49:00,
2013-03-12 17:54:00,61.5,45.7,28.77,West,265,4.0,8.0,56,0.00,,,0.00,VWS V14.01,2013-03-13 00:54:00,
2013-03-12 17:59:00,60.8,45.0,28.77,WSW,253,4.0,5.0,56,0.00,,,0.00,VWS V14.01,2013-03-13 00:59:00,
2013-03-12 18:00:00,60.9,45.1,28.77,West,260,1.0,8.0,56,0.00,,,0.00,VWS V14.01,2013-03-13 01:00:00,
2013-03-12 18:04:00,60.6,44.8,28.77,WSW,240,5.0,6.0,56,0.00,,,0.00,VWS V14.01,2013-03-13 01:04:00,
2013-03-12 18:09:00,60.0,43.3,28.77,WSW,246,0.0,6.0,54,0.00,,,0.00,VWS V14.01,2013-03-13 01:09:00,
2013-03-12 18:14:00,59.5,41.4,28.77,West,273,2.0,7.0,51,0.00,,,0.00,VWS V14.01,2013-03-13 01:14:00,
2013-03-12 18:19:00,59.3,40.2,28.77,SW,214,3.0,7.0,49,0.00,,,0.00,VWS V14.01,2013-03-13 01:19:00,
2013-03-12 18:24:00,59.1,39.5,28.77,SW,215,2.0,7.0,48,0.00,,,0.00,VWS V14.01,2013-03-13 01:24:00,
2013-03-12 18:29:00,59.0,38.8,28.77,SW,233,4.0,4.0,47,0.00,,,0.00,VWS V14.01,2013-03-13 01:29:00,
2013-03-12 18:30:00,59.0,38.8,28.77,SW,233,1.0,7.0,47,0.00,,,0.00,VWS V14.01,2013-03-13 01:30:00,
2013-03-12 18:34:00,59.0,38.8,28.77,WSW,256,4.0,6.0,47,0.00,,,0.00,VWS V14.01,2013-03-13 01:34:00,
2013-03-12 18:39:00,58.8,38.6,28.77,WNW,287,0.0,6.0,47,0.00,,,0.00,VWS V14.01,2013-03-13 01:39:00,
2013-03-12 18:44:00,58.5,37.8,28.77,West,281,0.0,6.0,46,0.00,,,0.00,VWS V14.01,2013-03-13 01:44:00,
2013-03-12 18:49:00,58.1,37.5,28.77,West,278,0.0,6.0,46,0.00,,,0.00,VWS V14.01,2013-03-13 01:49:00,
2013-03-12 18:54:00,57.8,36.6,28.77,West,279,0.0,6.0,45,0.00,,,0.00,VWS V14.01,2013-03-13 01:54:00,
2013-03-12 18:59:00,57.6,35.9,28.77,West,277,1.0,1.0,44,0.00,,,0.00,VWS V14.01,2013-03-13 01:59:00,
2013-03-12 19:00:00,57.6,35.9,28.77,West,277,0.0,6.0,44,0.00,,,0.00,VWS V14.01,2013-03-13 02:00:00,
2013-03-12 19:04:00,57.3,35.6,28.77,West,267,1.0,4.0,44,0.00,,,0.00,VWS V14.01,2013-03-13 02:04:00,
2013-03-12 19:09:00,57.0,34.8,28.77,West,267,3.0,4.0,43,0.00,,,0.00,VWS V14.01,2013-03-13 02:09:00,
2013-03-12 19:14:00,56.9,34.1,28.77,West,267,4.0,4.0,42,0.00,,,0.00,VWS V14.01,2013-03-13 02:14:00,
2013-03-12 19:19:00,56.8,33.4,28.77,West,267,2.0,4.0,41,0.00,,,0.00,VWS V14.01,2013-03-13 02:19:00,
2013-03-12 19:24:00,56.8,32.1,28.77,West,266,4.0,4.0,39,0.00,,,0.00,VWS V14.01,2013-03-13 02:24:00,
2013-03-12 19:29:00,56.7,31.4,28.77,West,265,2.0,2.0,38,0.00,,,0.00,VWS V14.01,2013-03-13 02:29:00,
2013-03-12 19:30:00,56.7,31.4,28.77,West,265,0.0,5.0,38,0.00,,,0.00,VWS V14.01,2013-03-13 02:30:00,
2013-03-12 19:34:00,56.7,30.1,28.77,West,279,4.0,5.0,36,0.00,,,0.00,VWS V14.01,2013-03-13 02:34:00,
2013-03-12 19:39:00,56.6,29.3,28.77,West,276,2.0,5.0,35,0.00,,,0.00,VWS V14.01,2013-03-13 02:39:00,
2013-03-12 19:44:00,56.5,29.2,28.77,West,276,1.0,5.0,35,0.00,,,0.00,VWS V14.01,2013-03-13 02:44:00,
2013-03-12 19:49:00,56.6,27.9,28.77,West,276,0.0,5.0,33,0.00,,,0.00,VWS V14.01,2013-03-13 02:49:00,
2013-03-12 19:54:00,56.6,27.1,28.77,West,276,0.0,5.0,32,0.00,,,0.00,VWS V14.01,2013-03-13 02:54:00,
2013-03-12 19:59:00,56.6,27.1,28.77,West,276,0.0,0.0,32,0.00,,,0.00,VWS V14.01,2013-03-13 02:59:00,
2013-03-12 20:00:00,56.6,27.1,28.77,West,276,0.0,5.0,32,0.00,,,0.00,VWS V14.01,2013-03-13 03:00:00,
2013-03-12 20:04:00,56.6,26.3,28.77,West,276,0.0,3.0,31,0.00,,,0.00,VWS V14.01,2013-03-13 03:04:00,
2013-03-12 20:09:00,56.6,25.5,28.77,West,276,0.0,3.0,30,0.00,,,0.00,VWS V14.01,2013-03-13 03:09:00,
2013-03-12 20:14:00,56.6,25.5,28.77,West,276,0.0,3.0,30,0.00,,,0.00,VWS V14.01,2013-03-13 03:14:00,
2013-03-12 20:19:00,56.4,25.4,28.77,West,276,0.0,3.0,30,0.00,,,0.00,VWS V14.01,2013-03-13 03:19:00,
2013-03-12 20:24:00,56.4,24.6,28.77,West,276,0.0,3.0,29,0.00,,,0.00,VWS V14.01,2013-03-13 03:24:00,
2013-03-12 20:29:00,56.4,24.6,28.77,West,276,0.0,0.0,29,0.00,,,0.00,VWS V14.01,2013-03-13 03:29:00,
2013-03-12 20:30:00,56.4,24.6,28.77,West,276,0.0,3.0,29,0.00,,,0.00,VWS V14.01,2013-03-13 03:30:00,
2013-03-12 20:34:00,56.4,23.7,28.77,West,276,0.0,0.0,28,0.00,,,0.00,VWS V14.01,2013-03-13 03:34:00,
2013-03-12 20:39:00,56.4,23.7,28.77,West,276,0.0,0.0,28,0.00,,,0.00,VWS V14.01,2013-03-13 03:39:00,
2013-03-12 20:44:00,56.2,23.5,28.77,West,276,0.0,0.0,28,0.00,,,0.00,VWS V14.01,2013-03-13 03:44:00,
2013-03-12 20:49:00,56.1,22.6,28.77,West,276,0.0,0.0,27,0.00,,,0.00,VWS V14.01,2013-03-13 03:49:00,
2013-03-12 20:54:00,56.0,22.5,28.77,West,276,0.0,0.0,27,0.00,,,0.00,VWS V14.01,2013-03-13 03:54:00,
2013-03-12 20:59:00,56.0,22.5,28.77,West,276,0.0,0.0,27,0.00,,,0.00,VWS V14.01,2013-03-13 03:59:00,
2013-03-12 21:00:00,56.0,22.5,28.77,West,276,0.0,0.0,27,0.00,,,0.00,VWS V14.01,2013-03-13 04:00:00,
2013-03-12 21:05:00,55.8,22.3,28.77,West,276,0.0,0.0,27,0.00,,,0.00,VWS V14.01,2013-03-13 04:05:00,
2013-03-12 21:10:00,55.6,21.3,28.77,West,276,0.0,0.0,26,0.00,,,0.00,VWS V14.01,2013-03-13 04:10:00,
2013-03-12 21:15:00,55.4,21.1,28.77,West,276,0.0,0.0,26,0.00,,,0.00,VWS V14.01,2013-03-13 04:15:00,
2013-03-12 21:20:00,55.1,20.9,28.77,West,276,0.0,0.0,26,0.00,,,0.00,VWS V14.01,2013-03-13 04:20:00,
2013-03-12 21:25:00,55.0,20.8,28.77,West,276,0.0,0.0,26,0.00,,,0.00,VWS V14.01,2013-03-13 04:25:00,
2013-03-12 21:30:00,54.9,20.7,28.77,West,276,0.0,0.0,26,0.00,,,0.00,VWS V14.01,2013-03-13 04:30:00,
2013-03-12 21:35:00,54.7,20.5,28.77,West,276,0.0,0.0,26,0.00,,,0.00,VWS V14.01,2013-03-13 04:35:00,
2013-03-12 21:40:00,54.4,20.2,28.77,West,276,0.0,1.0,26,0.00,,,0.00,VWS V14.01,2013-03-13 04:40:00,
2013-03-12 21:45:00,54.3,20.2,28.77,West,276,0.0,1.0,26,0.00,,,0.00,VWS V14.01,2013-03-13 04:45:00,
2013-03-12 21:50:00,54.7,19.6,28.77,West,276,0.0,1.0,25,0.00,,,0.00,VWS V14.01,2013-03-13 04:50:00,
2013-03-12 21:55:00,54.9,19.8,28.77,West,276,0.0,1.0,25,0.00,,,0.00,VWS V14.01,2013-03-13 04:55:00,
2013-03-12 22:00:00,54.9,19.8,28.77,West,276,0.0,0.0,25,0.00,,,0.00,VWS V14.01,2013-03-13 05:00:00,
2013-03-12 22:05:00,54.6,19.5,28.77,West,276,0.0,0.0,25,0.00,,,0.00,VWS V14.01,2013-03-13 05:05:00,
2013-03-12 22:10:00,54.4,19.3,28.77,West,276,0.0,0.0,25,0.00,,,0.00,VWS V14.01,2013-03-13 05:10:00,
2013-03-12 22:15:00,54.2,18.2,28.77,West,276,0.0,0.0,24,0.00,,,0.00,VWS V14.01,2013-03-13 05:15:00,
2013-03-12 22:20:00,54.2,18.2,28.77,West,276,0.0,0.0,24,0.00,,,0.00,VWS V14.01,2013-03-13 05:20:00,
2013-03-12 22:25:00,54.2,18.2,28.77,West,276,0.0,0.0,24,0.00,,,0.00,VWS V14.01,2013-03-13 05:25:00,
2013-03-12 22:30:00,54.2,18.2,28.77,West,276,0.0,0.0,24,0.00,,,0.00,VWS V14.01,2013-03-13 05:30:00,
2013-03-12 22:35:00,54.0,18.0,28.77,West,276,0.0,0.0,24,0.00,,,0.00,VWS V14.01,2013-03-13 05:35:00,
2013-03-12 22:40:00,53.8,17.9,28.77,West,276,0.0,0.0,24,0.00,,,0.00,VWS V14.01,2013-03-13 05:40:00,
2013-03-12 22:45:00,53.5,17.6,28.77,West,276,0.0,0.0,24,0.00,,,0.00,VWS V14.01,2013-03-13 05:45:00,
2013-03-12 22:50:00,53.3,17.5,28.77,West,276,0.0,0.0,24,0.00,,,0.00,VWS V14.01,2013-03-13 05:50:00,
2013-03-12 22:55:00,53.1,17.3,28.77,West,276,0.0,0.0,24,0.00,,,0.00,VWS V14.01,2013-03-13 05:55:00,
2013-03-12 23:00:00,52.9,17.1,28.77,West,276,0.0,0.0,24,0.00,,,0.00,VWS V14.01,2013-03-13 06:00:00,
2013-03-12 23:05:00,52.6,16.9,28.77,West,276,0.0,0.0,24,0.00,,,0.00,VWS V14.01,2013-03-13 06:05:00,
2013-03-12 23:10:00,52.4,16.7,28.77,West,276,0.0,0.0,24,0.00,,,0.00,VWS V14.01,2013-03-13 06:10:00,
2013-03-12 23:15:00,52.2,16.5,28.77,West,276,0.0,0.0,24,0.00,,,0.00,VWS V14.01,2013-03-13 06:15:00,
2013-03-12 23:20:00,52.1,16.4,28.77,West,276,1.0,1.0,24,0.00,,,0.00,VWS V14.01,2013-03-13 06:20:00,
2013-03-12 23:25:00,52.0,16.4,28.77,West,276,0.0,1.0,24,0.00,,,0.00,VWS V14.01,2013-03-13 06:25:00,
2013-03-12 23:30:00,51.9,16.3,28.77,West,276,0.0,0.0,24,0.00,,,0.00,VWS V14.01,2013-03-13 06:30:00,
2013-03-12 23:35:00,51.7,16.1,28.77,West,276,1.0,2.0,24,0.00,,,0.00,VWS V14.01,2013-03-13 06:35:00,
2013-03-12 23:40:00,51.6,16.0,28.77,West,276,1.0,2.0,24,0.00,,,0.00,VWS V14.01,2013-03-13 06:40:00,
2013-03-12 23:45:00,51.6,17.0,28.77,West,276,0.0,2.0,25,0.00,,,0.00,VWS V14.01,2013-03-13 06:45:00,
2013-03-12 23:50:00,51.6,17.0,28.77,West,276,0.0,2.0,25,0.00,,,0.00,VWS V14.01,2013-03-13 06:50:00,
2013-03-12 23:55:00,51.7,17.9,28.77,West,276,0.0,2.0,26,0.00,,,0.00,VWS V14.01,2013-03-13 06:55:00,